When you browse on this site, cookies collect data to enhance your experience and personalize the content and advertising you see.
Visit our Privacy Policy to learn more. By continuing to use the site, you agree to this use of cookies and data.
  • In Hungary
  • List of Countries
  • For 7 days
  • Water Temperature
  • Satellite Maps
  • Weather Map
  • News
  • Weather Widgets
  • user-avatar
    Login

    Hourly Weather Vinh

    Today, 23 March, Saturday

    Time Temperature Precipitation Wind Pressure Humidity
    00:00 +28°C° 0 mm 1 mps 745 mmHg 73%
    01:00 +28°C° 0 mm 1 mps 745 mmHg 67%
    02:00 +27°C° 0 mm 1 mps 745 mmHg 70%
    03:00 +27°C° 0 mm 1 mps 745 mmHg 72%
    04:00 +27°C° 0 mm 1 mps 745 mmHg 75%
    05:00 +27°C° 0 mm 1 mps 746 mmHg 77%
    06:00 +27°C° 0 mm 1 mps 746 mmHg 80%
    07:00 +28°C° 0 mm 1 mps 747 mmHg 85%
    08:00 +29°C° 1 mm 1 mps 747 mmHg 82%
    09:00 +30°C° 1 mm 2 mps 748 mmHg 79%
    10:00 +31°C° 1 mm 2 mps 748 mmHg 75%
    11:00 +30°C° 1 mm 2 mps 748 mmHg 79%
    12:00 +29°C° 1 mm 2 mps 747 mmHg 82%
    13:00 +29°C° 1 mm 2 mps 747 mmHg 85%
    14:00 +28°C° 1.3 mm 2 mps 747 mmHg 87%
    15:00 +27°C° 1.3 mm 2 mps 746 mmHg 89%
    16:00 +27°C° 1.3 mm 2 mps 746 mmHg 91%
    17:00 +26°C° 0.2 mm 2 mps 746 mmHg 93%
    18:00 +25°C° 0.2 mm 2 mps 747 mmHg 94%
    19:00 +25°C° 0.2 mm 2 mps 747 mmHg 95%
    20:00 +25°C° 0.1 mm 2 mps 748 mmHg 95%
    21:00 +25°C° 0.1 mm 1 mps 748 mmHg 95%
    22:00 +24°C° 0.1 mm 1 mps 749 mmHg 95%
    23:00 +24°C° 0.1 mm 1 mps 749 mmHg 95%

    Tomorrow, 24 March, Sunday

    Time Temperature Precipitation Wind Pressure Humidity
    00:00 +24°C° 0.1 mm 1 mps 749 mmHg 96%
    01:00 +24°C° 0.1 mm 1 mps 748 mmHg 96%
    02:00 +24°C° 0.1 mm 1 mps 748 mmHg 96%
    03:00 +24°C° 0.1 mm 1 mps 748 mmHg 96%
    04:00 +24°C° 0.1 mm 1 mps 748 mmHg 96%
    05:00 +24°C° 0.1 mm 1 mps 748 mmHg 95%
    06:00 +24°C° 0.1 mm 1 mps 748 mmHg 95%
    07:00 +24°C° 0.1 mm 1 mps 748 mmHg 95%
    08:00 +24°C° 0.1 mm 1 mps 749 mmHg 91%
    09:00 +25°C° 0.1 mm 1 mps 749 mmHg 88%
    10:00 +26°C° 0.1 mm 1 mps 749 mmHg 85%
    11:00 +26°C° 0.2 mm 1 mps 749 mmHg 85%
    12:00 +25°C° 0.2 mm 1 mps 748 mmHg 85%
    13:00 +25°C° 0.2 mm 1 mps 748 mmHg 85%
    14:00 +26°C° 0.1 mm 1 mps 747 mmHg 84%
    15:00 +26°C° 0.1 mm 1 mps 746 mmHg 83%
    16:00 +26°C° 0.1 mm 1 mps 746 mmHg 81%
    17:00 +26°C° 0 mm 1 mps 746 mmHg 85%
    18:00 +25°C° 0 mm 1 mps 747 mmHg 88%
    19:00 +24°C° 0 mm 1 mps 747 mmHg 92%
    20:00 +22°C° 0 mm 0 mps 747 mmHg 93%
    21:00 +22°C° 0 mm 0 mps 748 mmHg 93%
    22:00 +22°C° 0 mm 0 mps 748 mmHg 94%
    23:00 +22°C° 0 mm 0 mps 748 mmHg 94%

    Day after tomorrow, 25 March, Monday

    Time Temperature Precipitation Wind Pressure Humidity
    00:00 +22°C° 0 mm 0 mps 748 mmHg 95%
    01:00 +22°C° 0 mm 0 mps 747 mmHg 95%
    02:00 +22°C° 0 mm 0 mps 747 mmHg 95%
    03:00 +21°C° 0 mm 0 mps 747 mmHg 94%
    04:00 +21°C° 0 mm 0 mps 746 mmHg 94%
    05:00 +22°C° 0 mm 0 mps 747 mmHg 93%
    06:00 +22°C° 0 mm 0 mps 747 mmHg 91%
    07:00 +22°C° 0 mm 0 mps 748 mmHg 89%
    08:00 +24°C° 0 mm 0 mps 748 mmHg 84%
    09:00 +27°C° 0 mm 1 mps 749 mmHg 79%
    10:00 +29°C° 0 mm 1 mps 749 mmHg 74%
    11:00 +30°C° 0 mm 1 mps 749 mmHg 69%
    12:00 +32°C° 0 mm 2 mps 748 mmHg 65%
    13:00 +34°C° 0 mm 2 mps 747 mmHg 61%
    14:00 +32°C° 0.2 mm 2 mps 747 mmHg 64%
    15:00 +32°C° 0.2 mm 2 mps 746 mmHg 67%
    16:00 +31°C° 0.2 mm 2 mps 746 mmHg 70%
    17:00 +30°C° 0.1 mm 2 mps 746 mmHg 77%
    18:00 +29°C° 0.1 mm 2 mps 747 mmHg 84%
    19:00 +27°C° 0.1 mm 1 mps 747 mmHg 91%
    20:00 +27°C° 0.1 mm 1 mps 748 mmHg 92%
    21:00 +27°C° 0.1 mm 1 mps 748 mmHg 93%
    22:00 +26°C° 0.1 mm 1 mps 749 mmHg 94%
    23:00 +24°C° 0 mm 0 mps 749 mmHg 95%

    26 March, Tuesday

    Time Temperature Precipitation Wind Pressure Humidity
    00:00 +24°C° 0 mm 0 mps 749 mmHg 95%
    01:00 +23°C° 0 mm 0 mps 748 mmHg 96%
    02:00 +23°C° 0 mm 0 mps 748 mmHg 96%
    03:00 +23°C° 0 mm 0 mps 748 mmHg 96%
    04:00 +22°C° 0 mm 0 mps 748 mmHg 96%
    05:00 +23°C° 0 mm 0 mps 748 mmHg 94%
    06:00 +23°C° 0 mm 0 mps 749 mmHg 92%
    07:00 +23°C° 0 mm 0 mps 749 mmHg 89%
    08:00 +27°C° 0 mm 1 mps 750 mmHg 81%
    09:00 +29°C° 0 mm 1 mps 750 mmHg 72%
    10:00 +31°C° 0 mm 2 mps 751 mmHg 63%
    11:00 +32°C° 0.1 mm 2 mps 750 mmHg 61%
    12:00 +34°C° 0.1 mm 2 mps 749 mmHg 59%
    13:00 +35°C° 0.1 mm 2 mps 748 mmHg 58%
    14:00 +34°C° 0.4 mm 2 mps 748 mmHg 61%
    15:00 +34°C° 0.4 mm 2 mps 747 mmHg 65%
    16:00 +33°C° 0.4 mm 3 mps 747 mmHg 68%
    17:00 +30°C° 0.2 mm 2 mps 747 mmHg 75%
    18:00 +29°C° 0.2 mm 2 mps 748 mmHg 82%
    19:00 +27°C° 0.2 mm 1 mps 748 mmHg 88%
    20:00 +27°C° 0 mm 1 mps 749 mmHg 90%
    21:00 +27°C° 0 mm 1 mps 749 mmHg 92%
    22:00 +26°C° 0 mm 1 mps 750 mmHg 93%
    23:00 +24°C° 0 mm 0 mps 749 mmHg 94%

    27 March, Wednesday

    Time Temperature Precipitation Wind Pressure Humidity
    00:00 +24°C° 0 mm 0 mps 749 mmHg 94%
    01:00 +23°C° 0 mm 0 mps 749 mmHg 94%
    02:00 +23°C° 0 mm 0 mps 748 mmHg 94%
    03:00 +23°C° 0 mm 0 mps 748 mmHg 93%
    04:00 +22°C° 0 mm 0 mps 747 mmHg 93%
    05:00 +23°C° 0 mm 0 mps 748 mmHg 90%
    06:00 +23°C° 0 mm 0 mps 748 mmHg 87%
    07:00 +24°C° 0 mm 0 mps 749 mmHg 84%
    08:00 +26°C° 0 mm 0 mps 749 mmHg 75%
    09:00 +30°C° 0 mm 1 mps 749 mmHg 67%
    10:00 +33°C° 0 mm 1 mps 749 mmHg 58%
    11:00 +34°C° 0.1 mm 2 mps 749 mmHg 57%
    12:00 +35°C° 0.1 mm 2 mps 748 mmHg 56%
    13:00 +36°C° 0.1 mm 2 mps 747 mmHg 55%
    14:00 +35°C° 1.2 mm 2 mps 746 mmHg 60%
    15:00 +35°C° 1.2 mm 2 mps 745 mmHg 64%
    16:00 +34°C° 1.2 mm 2 mps 745 mmHg 69%
    17:00 +31°C° 1.4 mm 2 mps 745 mmHg 76%
    18:00 +29°C° 1.4 mm 1 mps 746 mmHg 83%
    19:00 +28°C° 1.4 mm 1 mps 746 mmHg 90%
    20:00 +27°C° 0.2 mm 1 mps 746 mmHg 91%
    21:00 +25°C° 0.2 mm 0 mps 747 mmHg 92%
    22:00 +25°C° 0.2 mm 0 mps 747 mmHg 94%
    23:00 +25°C° 0 mm 0 mps 747 mmHg 94%

    28 March, Thursday

    Time Temperature Precipitation Wind Pressure Humidity
    00:00 +24°C° 0 mm 0 mps 746 mmHg 94%
    01:00 +24°C° 0 mm 0 mps 746 mmHg 94%
    02:00 +24°C° 0 mm 0 mps 746 mmHg 94%
    03:00 +24°C° 0 mm 0 mps 746 mmHg 93%
    04:00 +24°C° 0 mm 0 mps 745 mmHg 93%
    05:00 +24°C° 0.4 mm 0 mps 746 mmHg 91%
    06:00 +25°C° 0.4 mm 0 mps 746 mmHg 88%
    07:00 +25°C° 0.4 mm 0 mps 747 mmHg 86%
    08:00 +29°C° 0 mm 1 mps 747 mmHg 77%
    09:00 +32°C° 0 mm 1 mps 747 mmHg 68%
    10:00 +34°C° 0 mm 1 mps 747 mmHg 59%
    11:00 +35°C° 1.3 mm 2 mps 747 mmHg 60%
    12:00 +36°C° 1.3 mm 2 mps 746 mmHg 60%
    13:00 +36°C° 1.3 mm 2 mps 745 mmHg 61%
    14:00 +35°C° 1.4 mm 2 mps 745 mmHg 63%
    15:00 +35°C° 1.4 mm 2 mps 744 mmHg 65%
    16:00 +34°C° 1.4 mm 2 mps 744 mmHg 68%
    17:00 +32°C° 1.5 mm 2 mps 744 mmHg 74%
    18:00 +30°C° 1.5 mm 1 mps 745 mmHg 81%
    19:00 +28°C° 1.5 mm 1 mps 745 mmHg 88%
    20:00 +28°C° 1.2 mm 1 mps 746 mmHg 90%
    21:00 +27°C° 1.2 mm 1 mps 746 mmHg 92%
    22:00 +25°C° 1.2 mm 0 mps 747 mmHg 94%
    23:00 +25°C° 0.5 mm 0 mps 746 mmHg 95%
    Show more